ZTF彗星

C/2022 E3 ( ZTF )

English version
Home page
Updated on July 24, 2022

---------------------------------------------------------------------

・ プロフィール

発見日 2022年3月2日
発見光度 17.2等
発見者 Zwicky Transient Facility (ZTF)

・ 写真集

・ 軌道要素

Epoch 2022 Aug. 9.0 TT = JDT 2459800.5
T 2023 Jan. 12.78611 TT                                 Rudenko
q   1.1122561            (2000.0)            P               Q
z  -0.0002543      Peri.  145.81440     -0.60062771     -0.07339891
 +/-0.0000038      Node   302.55394     +0.33752590     +0.87941778
e   1.0002828      Incl.  109.16862     +0.72479144     -0.47035834
From 1491 observations 2021 Oct. 25-2022 July 18, mean residual 0".4.

・ 星図

・ 光度変化

        m1 = -2.0 + 5 logΔ + 25   log r  [    ,-288]  (              〜2022年 3月30日)
        m1 =  7.0 + 5 logΔ + 10.0 log r  [-288,    ]  (2022年 3月30日〜              )

---------------------------------------------------------------------

軌道要素はM.P.E.C. 2022-O08に掲載されたものです。
星図はステラナビゲータ Ver.10 (アストロアーツ) で作成したものです。
光度グラフはComet for Windowsで作成したものです。

---------------------------------------------------------------------

Copyright(C) Seiichi Yoshida (comet@aerith.net). All rights reserved.